Regional Weather Roundup
Issued by NWS State College, PA

Home | Current Version | Previous Version | Text Only | Print | Product List | Glossary On
Versions: 1 2 3 4 5 6 7 8 9 10 11 12 13 14 15 16 17 18 19 20 21 22 23 24 25 26 27 28 29 30 31 32 33 34 35 36 37 38 39 40 41 42 43 44 45 46 47 48 49 50
000
ASUS41 KCTP 200110
RWRCTP
PHLRWRCTP ALL

REGIONAL WEATHER ROUNDUP
NATIONAL WEATHER SERVICE STATE COLLEGE PA
900 PM EDT TUE SEP 19 2017

Note: "fair" indicates few or no clouds below 12,000 feet with no
significant weather and/or obstructions to visibility.

* = STATION THAT DOES NOT REPORT PRECIPITATION /E.G. RAIN...SNOW...ETC/
    THUNDER OR FOG.

PAZ002>004-007>009-013>016-020>023-029>032-200200-
WESTERN PENNSYLVANIA

CITY           SKY/WX    TMP DP  RH WIND       PRES   REMARKS
ERIE           CLEAR     69  63  81 CALM      29.98S
MEADVILLE      CLEAR     69  67  93 NE6       30.01R
FRANKLIN*      CLEAR     67  62  84 CALM      30.02R
NEW CASTLE     FAIR      69  66  90 W3        30.01R
BEAVER COUNTY  PTCLDY    72  63  73 CALM      30.00R
BUTLER*        CLEAR     67  62  84 CALM      30.00R
PITTSBURGH INT MOCLDY    75  61  61 CALM      29.99R
PITTSBURGH     CLEAR     74  60  61 CALM      29.99R
INDIANA*       CLEAR     64  63  94 CALM      30.03R
LATROBE        CLEAR     64  64 100 CALM      30.00R
WASHINGTON CO* CLEAR     64  61  88 CALM      30.00R
$$

PAZ004>006-010>012-017>019-024>028-033>037-041-042-045-046-049>053-200200-
CENTRAL PENNSYLVANIA

CITY           SKY/WX    TMP DP  RH WIND       PRES   REMARKS
BRADFORD       CLEAR     62  58  86 CALM      30.04S
DUBOIS         CLEAR     67  55  65 E5        30.02R
CLEARFIELD     CLEAR     64  62  93 N7        30.02R
JOHNSTOWN      CLEAR     66  61  84 E5        30.04R
ALTOONA        CLEAR     62  61  96 CALM      30.02R
STATE COLLEGE  PTCLDY    66  61  82 W5        30.00R
WILLIAMSPORT   CLEAR     68  65  90 CALM      29.96R
SELINSGROVE    CLEAR     62  62 100 CALM      29.96R
FT INDIANTOWN  CLEAR     74  64  71 N8        29.94R
CAPITAL CITY   CLEAR     70  62  76 W5        29.94R
HARRISBURG     PTCLDY    72  65  78 N6        29.93R
YORK           CLEAR     67  65  93 CALM      29.94R
$$

PAZ038>040-043-044-047-048-054-055-060>062-067>071-200200-
EASTERN PENNSYLVANIA

CITY           SKY/WX    TMP DP  RH WIND       PRES   REMARKS
SCRANTON       MOCLDY    71  61  70 E5        29.98R
MOUNT POCONO   CLOUDY    67  59  75 NE10      30.01R
ALLENTOWN      CLOUDY    75  62  64 NE13      29.93R
QUAKERTOWN*    PTCLDY    73  63  68 NE12      29.93R
READING        CLOUDY    76  67  73 CALM      29.91R
LANCASTER      MOCLDY    73  67  81 NW7       29.93R
COATESVILLE    PTCLDY    73  63  68 N7        29.94R
POTTSTOWN      CLOUDY    74  62  66 N8        29.93R
BLUE BELL      CLOUDY    72  63  73 N6        29.91R
DOYLESTOWN     NOT AVBL
WILLOW GROVE   NOT AVBL
NORTH PHILA    CLOUDY    74  64  71 NE23G30   29.90R
PHILADELPHIA   CLOUDY    75  64  68 N22G32    29.88R
$$



USA.gov is the U.S. government's official web portal to all federal, state and local government web resources and services.